This demonstration page uses our WeatherBlox Daily Observations layout. Learn more.

Left ArrowRight Arrow

Hourly Observations for June 29, 2016

Temp ( °F °C ) Dew Point ( °F °C ) Humidity (%) Winds ( mph kmh ) Pressure ( in mb ) Visibility ( mi km ) Precip ( " mm )
12:54 am 00:54 Mostly Clear 75 23.9 59 15 58 58 SE 6 9 30.08 1019 10 16.0934 0 0
1:54 am 01:54 Mostly Cloudy 73 22.8 60 15.6 64 64 S 7 11 30.08 1019 10 16.0934 0 0
2:54 am 02:54 Mostly Cloudy 72 22.2 61 16.1 68 68 S 7 11 30.05 1018 10 16.0934 0 0
3:54 am 03:54 Mostly Clear 73 22.8 60 15.6 64 64 S 12 19 30.01 1016 10 16.0934 0 0
4:54 am 04:54 Mostly Cloudy 72 22.2 62 16.7 71 71 NE 3 6 30.05 1018 10 16.0934 0 0
5:54 am 05:54 Cloudy with Light Rain 73 22.8 63 17.2 71 71 ESE 8 13 30.05 1018 10 16.0934 0 0.0254
6:54 am 06:54 Partly Cloudy 72 22.2 63 17.2 73 73 E 9 15 30.05 1018 10 16.0934 0 0.0254
7:54 am 07:54 Cloudy 72 22.2 64 17.8 76 76 ESE 10 17 30.06 1018 10 16.0934 0 0
8:54 am 08:54 Mostly Sunny 74 23.3 65 18.3 74 74 SE 10 17 30.08 1019 10 16.0934 0 0
9:54 am 09:54 Sunny 76 24.4 65 18.3 69 69 SE 12 19 30.06 1018 10 16.0934 0 0
10:54 am 10:54 Sunny 80 26.7 66 18.9 62 62 S 9 15 30.04 1017 10 16.0934 0 0
11:54 am 11:54 Sunny 83 28.3 66 18.9 57 57 S 10 17 30.04 1017 10 16.0934 0 0
12:54 pm 12:54 Partly Cloudy 85 29.4 67 19.4 55 55 S 8 13 30.02 1017 10 16.0934 0 0
1:54 pm 13:54 Partly Cloudy 87 30.6 61 16.1 42 42 S 8 13 30 1016 10 16.0934 0 0
2:54 pm 14:54 Sunny 89 31.7 60 15.6 38 38 SSW 7 11 29.98 1015 10 16.0934 0 0
3:54 pm 15:54 Sunny 89 31.7 61 16.1 39 39 SSW 9 15 29.96 1015 10 16.0934 0 0
4:54 pm 16:54 Sunny 87 30.6 63 17.2 45 45 SW 7 11 29.96 1014 10 16.0934 0 0
5:54 pm 17:54 Mostly Sunny 89 31.7 64 17.8 43 43 S 10 17 29.93 1014 10 16.0934 0 0
6:54 pm 18:54 Mostly Sunny 88 31.1 63 17.2 43 43 SW 6 9 29.92 1013 10 16.0934 0 0
7:54 pm 19:54 Sunny 86 30 65 18.3 49 49 S 7 11 29.91 1013 10 16.0934 0 0
8:54 pm 20:54 Sunny 82 27.8 66 18.9 58 58 SSE 6 9 29.92 1013 10 16.0934 0 0
9:54 pm 21:54 Cloudy 83 28.3 67 19.4 59 59 SSE 10 17 29.95 1014 10 16.0934 0 0
10:54 pm 22:54 Mostly Clear 79 26.1 68 20 69 69 SSE 9 15 29.95 1014 10 16.0934 0 0.0254
11:54 pm 23:54 Clear 75 23.9 68 20 79 79 S 6 9 29.96 1015 10 16.0934 0 0

Powered by AerisWeather